Wind_Speed
20 21 22 23 23 21 19 17 18 21 23 24 23 18 15 14 15 10 9 9 10 11 12 14 16 20 22 24 26 28 32 36 39 41 41 41 41 43 42 40 41 42 43
16 16 18 17 18 16 13 13 13 15 15 16 14 15 14 14 14 13 10 10 12 13 15 18 21 23 24 27 30 34 38 40 44 43 43 43 42 42 44 46 45 44 44
20 18 15 14 15 15 11 9 9 8 8 10 13 14 13 13 13 14 13 13 14 16 19 20 22 23 26 32 34 37 41 44 47 46 46 45 45 44 46 50 49 48 49
20 19 17 17 17 16 14 13 12 11 11 11 13 14 14 16 16 17 16 17 21 21 24 25 26 28 32 35 36 40 44 47 50 49 48 46 47 48 47 50 52 53 52
23 23 21 19 19 19 18 17 16 16 15 15 16 17 16 17 18 18 21 24 26 28 28 34 35 35 38 39 42 47 48 52 57 53 49 51 51 46 48 52 52 54 54
27 25 24 24 25 23 24 23 22 22 20 20 19 19 20 22 24 24 26 28 29 33 37 37 38 41 43 44 46 50 52 55 59 47 51 53 52 54 55 56 54 55 56
31 29 28 29 29 28 29 29 28 27 26 27 25 26 27 27 28 29 30 33 36 37 36 38 42 45 46 48 50 53 55 54 53 50 55 51 49 53 56 61 58 57 56
34 32 32 32 33 33 33 33 33 32 32 32 32 31 33 33 34 35 37 39 41 41 41 40 47 49 51 52 53 53 54 51 54 58 58 56 57 59 61 64 63 61 57
38 36 36 36 36 36 36 35 35 35 36 35 37 38 39 39 40 42 44 46 46 48 49 49 51 52 55 56 54 53 53 56 55 59 63 64 62 63 65 65 64 64 62
42 41 40 39 39 39 39 38 39 39 38 40 41 43 44 45 47 49 51 51 51 54 54 54 53 54 57 58 59 53 54 56 59 64 62 71 73 64 66 67 70 68 69
45 43 42 41 41 42 42 43 43 43 43 44 47 47 49 50 53 54 55 55 59 57 57 53 54 57 60 62 67 55 57 61 62 71 78 74 72 66 67 70 73 73 76
48 46 45 44 45 47 47 48 47 48 49 51 52 53 55 57 60 62 61 60 63 63 62 57 59 62 63 64 69 57 61 66 73 79 72 73 68 69 69 73 75 75 77
51 50 50 51 52 51 52 52 54 54 55 56 57 58 60 63 66 65 65 66 66 65 65 63 67 66 68 72 66 61 67 73 80 74 71 69 70 70 71 71 71 72 70
56 55 55 55 56 56 57 58 60 60 62 62 62 65 67 69 69 67 68 67 68 67 66 70 66 67 72 72 69 67 72 80 75 76 72 65 61 61 65 73 65 50 50
61 61 63 62 62 63 64 64 65 67 68 69 71 73 71 70 70 73 73 70 68 69 70 67 67 70 70 73 69 73 76 76 78 71 70 62 62 66 75 71 61 37 27
64 66 65 65 66 67 69 70 71 74 76 78 79 75 75 77 79 78 74 71 69 71 72 74 76 74 81 82 74 75 81 77 73 68 65 68 75 77 77 32 30 26 25
68 68 67 69 72 75 76 78 80 82 82 83 81 81 82 85 81 79 73 72 73 80 85 81 82 83 76 80 77 72 79 78 71 63 59 61 66 59 21 18 23 29 28
75 76 77 79 80 82 82 83 84 85 85 87 88 89 82 77 77 76 79 84 92 90 89 87 83 85 81 81 72 75 75 73 66 58 55 57 46 32 26 26 29 33 35
82 83 82 82 83 85 87 86 86 89 89 87 82 88 87 85 84 87 90 97 99 92 88 88 90 86 78 77 83 75 74 69 62 53 55 40 36 35 27 34 35 37 35
85 85 86 85 86 88 90 90 90 91 91 93 97 95 97 96 95 98 102 105 102 103 104 95 83 84 81 76 80 74 67 58 53 42 43 42 40 40 38 41 37 34 38
85 87 86 86 87 88 90 93 95 98 99 101 103 103 104 105 107 106 108 107 106 106 96 96 89 85 81 79 77 73 58 47 42 46 47 40 43 40 37 42 36 35 39
92 94 96 97 98 99 100 101 103 106 107 108 108 109 110 110 109 111 106 105 101 98 90 90 86 82 81 81 75 66 54 49 51 54 55 42 34 36 37 40 39 36 40
98 101 103 104 105 107 107 109 110 111 111 111 111 110 106 106 99 101 99 95 95 89 87 86 83 81 81 78 76 70 62 57 57 55 56 52 45 39 38 50 49 47 48
104 105 108 110 111 111 110 111 112 114 112 112 110 105 102 103 100 96 92 89 85 85 85 83 81 78 74 73 64 59 59 58 58 54 54 52 51 43 46 46 50 51 47
109 110 112 112 114 116 115 113 111 108 107 103 99 97 92 90 87 85 83 81 79 77 75 73 69 66 62 57 59 60 61 57 58 57 58 59 52 52 51 50 52 42 40
112 112 113 111 109 108 110 107 104 97 93 91 86 83 81 78 76 73 71 68 64 61 59 58 58 56 51 47 46 50 62 56 56 56 55 56 61 61 59 61 55 48 43
Wind_Direction
248 245 239 240 242 241 247 257 257 251 253 256 255 258 277 276 285 276 306 321 326 327 327 330 328 329 331 332 335 338 339 339 339 337 335 334 334 332 332 332 334 334 336
247 248 257 244 242 232 235 250 254 260 257 263 262 263 271 273 272 282 293 305 315 316 323 325 323 323 327 333 332 334 333 333 335 332 330 328 328 328 329 331 328 327 327
245 234 231 230 234 238 240 249 249 233 236 247 254 257 257 266 279 286 290 303 311 305 309 314 319 320 323 328 328 329 330 329 329 331 325 324 324 324 322 324 325 325 323
239 237 226 226 233 237 235 229 229 231 240 250 256 261 268 277 286 292 296 296 300 299 305 310 317 320 324 323 323 324 325 326 324 322 322 320 319 321 321 324 324 321 321
230 231 234 234 236 240 240 240 238 242 248 252 255 256 264 271 278 285 288 292 301 305 308 316 318 316 316 316 320 322 322 322 322 317 317 316 316 319 320 321 321 320 318
230 231 234 236 237 239 242 246 252 252 254 263 265 267 271 275 276 280 288 295 304 312 315 314 315 317 317 315 315 319 318 321 322 321 319 316 308 307 311 314 313 316 315
232 232 236 236 236 239 244 251 256 256 262 272 270 270 277 281 285 293 299 303 303 306 307 310 315 312 312 312 310 312 316 315 317 318 318 320 314 307 307 309 306 312 313
238 238 238 240 239 242 246 250 255 258 263 270 274 278 283 289 294 296 298 301 303 302 305 305 311 313 309 310 310 310 314 313 314 308 313 317 313 311 311 308 304 306 309
240 243 245 247 249 252 256 259 263 267 272 275 278 280 286 291 293 295 297 299 300 302 302 302 305 308 307 307 306 303 307 310 312 314 311 313 311 306 308 308 304 302 306
246 248 251 253 254 258 266 269 272 270 275 273 281 285 288 291 294 294 295 295 301 303 300 297 298 305 306 304 305 296 299 306 303 305 309 310 311 305 304 308 306 300 307
249 256 257 259 260 263 265 268 271 275 278 279 281 285 286 290 292 295 296 295 296 298 297 295 293 303 307 304 306 293 303 306 305 309 310 310 308 306 305 305 305 303 305
253 254 256 260 263 267 270 272 275 277 277 281 284 287 290 291 295 294 295 296 296 298 298 295 297 300 307 308 308 292 303 307 307 306 307 307 303 303 303 306 305 306 307
258 261 261 261 264 269 272 275 276 279 282 284 285 287 288 291 293 293 293 294 296 298 298 298 297 296 299 305 308 295 301 301 302 301 303 300 299 300 299 299 303 301 301
264 265 267 269 272 275 276 277 277 277 279 281 284 288 290 290 291 291 292 292 292 292 294 299 299 296 298 301 297 297 296 297 300 302 299 297 301 300 298 295 306 300 300
265 268 269 271 273 276 279 280 282 284 284 285 286 287 287 287 288 288 290 288 289 294 297 297 298 298 296 299 297 295 295 295 298 300 300 299 298 296 295 298 297 295 303
266 267 269 273 276 279 280 281 281 281 282 283 285 285 287 287 289 288 287 286 292 295 298 295 289 291 298 298 295 292 297 296 297 299 297 293 290 289 291 298 285 288 302
259 264 266 270 272 273 275 277 278 278 279 281 282 283 284 284 287 284 286 290 288 290 292 296 296 298 297 297 295 291 294 293 298 297 292 290 292 294 278 299 288 296 310
258 261 263 264 266 271 274 276 277 277 278 279 279 280 283 285 286 282 281 284 292 293 294 297 297 299 297 295 291 293 288 291 293 292 288 290 288 274 264 295 297 299 301
261 263 265 266 268 271 273 273 274 276 279 282 277 282 283 284 275 280 280 286 291 294 294 293 293 294 293 290 292 289 287 289 289 286 284 270 260 267 275 288 298 301 302
264 267 269 272 272 272 274 275 277 277 276 275 282 280 282 281 283 284 286 289 287 289 292 293 287 290 287 286 287 287 284 285 282 268 262 264 263 267 273 286 288 302 300
267 268 269 269 268 269 270 271 270 271 273 274 275 278 280 283 286 285 283 284 288 289 288 287 289 287 284 281 281 282 285 274 254 252 254 255 255 262 272 280 294 292 304
265 266 267 268 268 269 269 270 271 273 274 276 278 282 283 285 286 287 288 287 285 285 284 282 282 283 281 281 276 277 275 255 251 252 252 255 251 262 272 290 294 296 293
267 267 269 270 272 273 274 274 276 278 279 278 280 284 284 286 288 286 286 286 285 282 285 281 280 278 276 279 278 275 269 252 253 252 254 255 263 261 269 282 286 292 290
268 271 272 274 276 277 277 277 278 278 280 281 281 284 284 285 286 284 282 281 279 281 277 278 277 278 277 276 273 266 258 250 253 257 258 258 262 263 268 271 276 285 287
271 273 275 275 276 277 279 279 280 280 282 284 283 284 283 283 283 283 282 280 281 280 279 279 279 277 275 272 270 261 255 255 258 257 261 259 258 265 268 266 273 279 278
271 274 275 276 276 277 278 279 281 282 281 281 282 283 283 280 278 279 278 278 278 279 280 280 281 279 278 274 269 261 251 254 256 261 260 262 261 267 266 267 267 271 273
Height
10986 10987 10987 10988 10990 10991 10992 10994 10994 10995 10995 10997 10998 10998 10997 10996 10997 10997 10996 10995 10994 10994 10993 10992 10991 10990 10989 10987 10986 10985 10982 10980 10977 10973 10970 10966 10962 10959 10956 10952 10949 10945 10941
10983 10984 10985 10987 10989 10989 10990 10991 10991 10991 10992 10993 10994 10995 10994 10995 10995 10995 10994 10994 10993 10993 10991 10990 10989 10988 10987 10985 10982 10980 10977 10974 10972 10969 10965 10961 10958 10954 10951 10947 10943 10940 10936
10979 10980 10982 10985 10987 10988 10988 10989 10990 10989 10989 10990 10990 10991 10991 10991 10992 10992 10992 10991 10990 10990 10988 10987 10986 10984 10983 10980 10977 10975 10972 10969 10966 10963 10960 10956 10952 10949 10946 10943 10940 10936 10932
10975 10978 10979 10980 10983 10985 10985 10986 10987 10987 10988 10988 10989 10989 10989 10990 10990 10989 10989 10988 10987 10985 10984 10983 10981 10979 10977 10974 10972 10969 10966 10963 10959 10956 10954 10950 10947 10944 10940 10936 10934 10930 10926
10972 10974 10976 10978 10980 10982 10983 10984 10984 10984 10986 10987 10987 10987 10987 10987 10987 10986 10985 10985 10984 10983 10981 10978 10976 10973 10970 10968 10965 10962 10960 10956 10952 10949 10947 10944 10941 10937 10934 10930 10926 10922 10919
10967 10970 10973 10975 10978 10979 10980 10981 10981 10982 10982 10983 10983 10983 10983 10983 10983 10981 10981 10980 10979 10977 10975 10973 10971 10968 10965 10962 10959 10957 10953 10949 10945 10941 10940 10937 10934 10931 10927 10923 10918 10914 10911
10964 10966 10969 10971 10973 10974 10976 10976 10977 10978 10978 10978 10979 10979 10978 10977 10977 10976 10975 10974 10972 10971 10969 10967 10964 10962 10958 10955 10952 10950 10946 10943 10940 10936 10932 10928 10925 10923 10919 10915 10910 10905 10902
10960 10962 10965 10966 10968 10969 10970 10971 10972 10973 10973 10974 10974 10973 10972 10972 10971 10970 10969 10968 10966 10964 10962 10960 10957 10954 10951 10948 10945 10942 10940 10936 10933 10929 10926 10921 10918 10914 10910 10906 10901 10896 10893
10954 10957 10959 10961 10962 10963 10965 10966 10967 10967 10968 10967 10967 10966 10965 10964 10963 10962 10961 10959 10958 10957 10956 10953 10950 10948 10945 10942 10939 10935 10933 10929 10926 10922 10918 10914 10910 10905 10901 10896 10892 10888 10884
10946 10950 10952 10954 10957 10958 10959 10960 10961 10962 10961 10960 10959 10958 10957 10956 10956 10954 10953 10952 10950 10948 10946 10944 10941 10939 10936 10933 10930 10926 10923 10922 10918 10913 10908 10904 10900 10895 10891 10887 10883 10878 10874
10941 10943 10945 10947 10950 10952 10953 10953 10953 10953 10953 10952 10951 10950 10948 10948 10946 10945 10944 10942 10940 10938 10936 10935 10932 10930 10927 10923 10919 10916 10913 10909 10908 10902 10898 10892 10888 10885 10880 10876 10872 10866 10863
10936 10939 10940 10942 10942 10943 10944 10945 10944 10944 10943 10942 10941 10940 10939 10937 10936 10934 10932 10929 10927 10925 10924 10924 10921 10919 10915 10912 10908 10905 10901 10898 10896 10894 10888 10883 10877 10873 10869 10864 10857 10853 10849
10928 10930 10932 10933 10935 10936 10936 10936 10935 10934 10933 10931 10931 10930 10929 10927 10926 10924 10922 10918 10915 10913 10912 10914 10912 10910 10905 10903 10900 10896 10892 10888 10886 10882 10877 10873 10868 10865 10861 10856 10849 10843 10840
10918 10921 10923 10924 10924 10924 10925 10925 10924 10924 10923 10922 10921 10920 10918 10917 10914 10912 10911 10909 10906 10905 10903 10902 10901 10898 10897 10893 10889 10886 10881 10879 10873 10869 10866 10862 10859 10855 10850 10849 10844 10838 10831
10907 10910 10911 10912 10912 10913 10914 10914 10912 10910 10909 10908 10907 10907 10906 10905 10903 10900 10898 10898 10895 10893 10891 10891 10889 10888 10883 10881 10876 10872 10869 10865 10863 10856 10852 10850 10846 10841 10839 10837 10835 10829 10822
10898 10897 10899 10899 10901 10901 10900 10900 10899 10896 10895 10894 10893 10894 10892 10891 10890 10889 10886 10885 10883 10881 10879 10878 10876 10874 10869 10865 10861 10857 10853 10851 10848 10844 10840 10837 10833 10830 10827 10822 10822 10820 10817
10889 10891 10893 10891 10888 10889 10890 10889 10887 10883 10883 10880 10880 10880 10881 10880 10877 10876 10874 10871 10869 10868 10866 10862 10859 10858 10855 10851 10846 10843 10840 10838 10836 10833 10829 10821 10818 10819 10818 10811 10814 10813 10810
10881 10883 10883 10883 10883 10879 10877 10874 10871 10868 10867 10866 10865 10865 10866 10867 10866 10863 10861 10856 10852 10849 10849 10845 10842 10840 10838 10835 10832 10830 10828 10824 10822 10819 10815 10811 10810 10811 10809 10804 10805 10803 10803
10865 10866 10868 10869 10869 10867 10862 10863 10860 10855 10851 10850 10850 10850 10851 10851 10850 10848 10845 10841 10836 10830 10830 10828 10826 10826 10825 10820 10818 10815 10812 10812 10809 10806 10802 10801 10801 10803 10802 10796 10797 10794 10794
10848 10852 10852 10854 10854 10850 10846 10844 10843 10840 10837 10837 10836 10835 10833 10832 10832 10830 10825 10823 10821 10817 10813 10811 10810 10806 10809 10805 10799 10799 10798 10797 10796 10793 10790 10789 10791 10791 10792 10789 10788 10785 10784
10838 10836 10837 10836 10834 10833 10832 10830 10826 10821 10820 10820 10820 10818 10818 10814 10811 10809 10809 10806 10804 10804 10798 10792 10791 10791 10788 10790 10791 10785 10784 10782 10779 10778 10777 10775 10779 10779 10781 10779 10780 10778 10776
10822 10818 10816 10816 10815 10814 10812 10811 10809 10807 10805 10804 10803 10801 10798 10793 10789 10787 10786 10785 10784 10783 10780 10776 10772 10772 10772 10771 10775 10769 10771 10767 10762 10761 10764 10766 10765 10767 10769 10770 10770 10770 10770
10801 10799 10795 10795 10794 10792 10792 10792 10793 10789 10786 10785 10785 10783 10776 10773 10768 10766 10763 10762 10762 10763 10762 10758 10758 10756 10755 10754 10752 10753 10755 10755 10747 10749 10751 10754 10754 10755 10756 10758 10759 10760 10762
10780 10780 10776 10775 10773 10771 10771 10772 10772 10768 10767 10765 10764 10761 10757 10753 10749 10748 10744 10743 10743 10742 10741 10739 10738 10736 10737 10737 10737 10734 10739 10741 10740 10743 10740 10742 10747 10746 10747 10748 10747 10750 10751
10762 10760 10758 10756 10751 10749 10748 10750 10749 10747 10746 10743 10740 10736 10734 10731 10729 10729 10726 10724 10722 10722 10721 10719 10719 10721 10721 10722 10723 10722 10724 10727 10729 10734 10732 10730 10735 10733 10734 10736 10737 10740 10740
10747 10744 10739 10736 10732 10730 10727 10726 10726 10725 10723 10722 10718 10717 10715 10713 10711 10712 10711 10709 10709 10710 10710 10708 10706 10705 10707 10708 10708 10709 10711 10715 10715 10719 10722 10718 10721 10722 10722 10720 10723 10728 10728